OSCAR 7 1 07530U 74089B 12034.59309480 -.00000027 00000-0 10000-3 0 2976 2 07530 101.3985 037.0263 0011764 185.8886 174.2043 12.53587365703183 OSCAR 11 (UoSAT 2) 1 14781U 84021B 12034.95194251 +.00000558 +00000-0 +80094-4 0 07948 2 14781 097.9747 095.5432 0010034 106.3973 253.8344 14.80300240500074 EGS (AJISAI) 1 16908U 86061A 12034.91879083 -.00000083 +00000-0 +10000-3 0 07387 2 16908 050.0087 081.9716 0011636 145.6791 214.4799 12.44468700827355 TDRS 3 1 19548U 88091B 12035.10764427 -.00000291 00000-0 10000-3 0 8003 2 19548 013.4941 029.7200 0013593 337.2378 116.6721 01.00278446 72796 NAVSTAR 13 (USA 35) 1 19802U 89013A 12032.02328516 -.00000003 00000-0 10000-3 0 1514 2 19802 055.0566 272.6341 0043337 117.1355 243.3762 01.85321352161866 TDRS 4 1 19883U 89021B 12034.01306544 +.00000004 +00000-0 +00000-0 0 01943 2 19883 010.7147 035.6270 0012443 205.2943 154.7093 00.98482056256344 NAVSTAR 14 (USA 38) 1 20061U 89044A 12035.17700574 -.00000004 00000-0 10000-3 0 8354 2 20061 054.6255 066.8647 0021432 102.9837 257.3283 01.88857107162719 NAVSTAR 15 (USA 42) 1 20185U 89064A 12032.37301965 .00000008 00000-0 10000-3 0 5948 2 20185 054.8188 269.8388 0014099 254.3934 105.5225 01.86085005158512 NAVSTAR 16 (USA 47) 1 20302U 89085A 12035.00324770 -.00000058 00000-0 10000-3 0 7874 2 20302 055.7835 009.8285 0006943 347.4714 012.5159 01.89423150159142 NAVSTAR 17 (USA 49) 1 20361U 89097A 12033.03786897 .00000076 00000-0 10000-3 0 2970 2 20361 053.9735 197.3517 0017179 236.4943 123.3259 01.89174799150045 OSCAR 14 (UOSAT 3) 1 20437U 90005B 12034.91489164 +.00000014 +00000-0 +21276-4 0 07245 2 20437 098.4654 337.7065 0010277 196.8541 163.2297 14.31699355150659 OSCAR 16 (PACSAT) 1 20439U 90005D 12034.86565325 .00000131 00000-0 64683-4 0 3880 2 20439 098.4142 342.1084 0010340 193.6766 166.4137 14.32014091150779 OSCAR 19 (LUSAT) 1 20442U 90005G 12034.90916240 +.00000014 +00000-0 +20743-4 0 03200 2 20442 098.3789 345.6359 0011475 185.3943 174.7113 14.32234696150969 NAVSTAR 18 (USA 50) 1 20452U 90008A 12035.00457953 -.00000071 00000-0 10000-3 0 1528 2 20452 056.2099 317.8911 0011410 216.7033 143.2479 01.89596021156761 JAS 1B (FUJI 2) 1 20480U 90013C 12034.87685439 -.00000006 00000-0 53721-4 0 155 2 20480 099.0627 149.6342 0540643 151.8270 211.3233 12.83375430 30266 NAVSTAR 20 (USA 63) 1 20724U 90068A 12026.79947497 -.00000012 00000-0 10000-3 0 2592 2 20724 054.2171 259.5380 0045659 251.8787 107.6942 01.87181961151554 FENGYUN 1B 1 20788U 90081A 12034.94277495 +.00000323 +00000-0 +23915-3 0 04817 2 20788 099.0753 067.3451 0016017 185.7159 174.3827 14.02428019096173 NAVSTAR 21 (USA 64) 1 20830U 90088A 12030.50855273 .00000075 00000-0 10000-3 0 2156 2 20830 053.9961 192.9432 0016496 171.7612 188.2428 01.87754462154264 NAVSTAR 22 (USA 66) 1 20959U 90103A 12032.85397379 .00000065 00000-0 10000-3 0 4469 2 20959 054.5808 244.2032 0120873 323.1334 036.1168 02.00553307155151 COSMOS 2123 1 21089U 91007A 12034.73535902 +.00000036 +00000-0 +22209-4 0 00204 2 21089 082.9231 273.0086 0029109 167.8855 192.3006 13.74521310053280 NOAA 12 1 21263U 91032A 12035.54380423 .00000040 00000-0 35924-4 0 2926 2 21263 098.7392 057.7730 0012921 228.0931 131.9147 14.25475743 77511 NAVSTAR 23 (USA 71) 1 21552U 91047A 12029.63462019 .00000062 00000-0 10000-3 0 4077 2 21552 054.3307 182.8668 0024363 043.6392 316.5210 01.91859472150609 OSCAR 22 (UoSAT 5) 1 21575U 91050B 12034.87504181 +.00000222 +00000-0 +84809-4 0 03598 2 21575 098.5757 352.4260 0008019 026.7086 333.4508 14.39920026079088 TDRS 5 1 21639U 91054B 12034.62311649 +.00000099 +00000-0 +10000-3 0 00074 2 21639 011.8804 044.0599 0015985 325.2730 180.6506 01.00267624075103 METEOR 3-5 1 21655U 91056A 12034.91336336 +.00000051 +00000-0 +10000-3 0 03280 2 21655 082.5547 247.0426 0012547 301.9284 058.0570 13.17037399984226 NAVSTAR 24 (USA 79) 1 21890U 92009A 12034.25881739 -.00000074 00000-0 10000-3 0 3847 2 21890 055.9322 357.0895 0038016 312.0828 047.5939 01.91829616145568 NAVSTAR 26 (USA 83) 1 22014U 92039A 12034.64589783 -.00000047 +00000-0 +10000-3 0 02700 2 22014 056.4142 303.8970 0204717 066.9672 295.2205 02.00566386136922 OSCAR 23 (KITSAT 1) 1 22077U 92052B 12034.71644875 -.00000037 +00000-0 +10000-3 0 02930 2 22077 066.0870 112.8588 0013259 235.0987 124.8786 12.86465371915200 NAVSTAR 27 (USA 84) 1 22108U 92058A 12034.24764729 -.00000070 00000-0 10000-3 0 1891 2 22108 056.2614 356.8559 0221334 294.6020 063.1084 02.00577518142091 NAVSTAR 28 (USA 85) 1 22231U 92079A 12034.85033631 -.00000047 00000-0 10000-3 0 1242 2 22231 056.3139 304.5672 0087859 256.0090 103.0583 02.00558928140683 NAVSTAR 29 (USA 87) 1 22275U 92089A 12035.09421362 -.00000058 00000-0 10000-3 0 9352 2 22275 056.2384 309.3302 0040932 353.6359 006.3531 01.88249368138199 TDRS 6 1 22314U 93003B 12032.29189145 +.00000087 +00000-0 +10000-3 0 00208 2 22314 011.2764 046.9410 0009279 345.5297 032.0726 01.00275218069800 NAVSTAR 30 (USA 88) 1 22446U 93007A 12035.31813994 -.00000003 00000-0 10000-3 0 670 2 22446 054.5599 068.6982 0024242 295.7555 064.0672 01.88092910135369 NAVSTAR 31 (USA 90) 1 22581U 93017A 12034.51530325 -.00000026 00000-0 10000-3 0 8253 2 22581 053.6610 125.8800 0002093 328.4717 031.5296 01.88947017135528 NAVSTAR 32 (USA 91) 1 22657U 93032A 12028.51888371 -.00000021 00000-0 10000-3 0 4378 2 22657 053.8316 114.8551 0091024 298.9203 060.1852 02.00579693133330 NAVSTAR 33 (USA 92) 1 22700U 93042A 12034.28023369 -.00000068 00000-0 10000-3 0 5111 2 22700 056.4047 358.3771 0169436 091.9945 269.9484 02.00568172136259 NAVSTAR 34 (USA 94) 1 22779U 93054A 12034.01873214 -.00000016 00000-0 10000-3 0 1123 2 22779 054.9171 053.3754 0106254 089.2247 272.0479 02.00571488135008 METEOR 2-21 1 22782U 93055A 12034.80106804 -.00000006 00000-0 -19037-4 0 3288 2 22782 082.5501 139.1377 0023032 165.9138 194.2679 13.83676939930586 KITSAT B 1 22825U 93061C 12034.85140241 .00000125 00000-0 66171-4 0 234 2 22825 098.5602 339.8595 0008004 320.1085 039.9503 14.29427050957288 POSAT 1 1 22826U 93061D 12034.87783715 .00000117 00000-0 62496-4 0 7713 2 22826 098.5545 340.2922 0008576 313.9435 046.1036 14.29697382957411 ITAMSAT 1 22828U 93061F 12034.85641356 .00000091 00000-0 52301-4 0 9691 2 22828 098.5475 339.9226 0009114 283.2779 076.7381 14.29972680925713 NAVSTAR 35 (USA 96) 1 22877U 93068A 12035.41781195 .00000031 00000-0 10000-3 0 8660 2 22877 053.7348 179.0810 0098332 046.5064 314.2675 02.00550021133925 NAVSTAR 36 (USA 100) 1 23027U 94016A 12035.11303507 -.00000020 00000-0 10000-3 0 8283 2 23027 053.7081 115.8752 0069944 323.4020 036.1578 02.00560035131225 RADIO ROSTO 1 23439U 94085A 12034.74925334 -.00000039 +00000-0 +10000-3 0 04952 2 23439 064.8192 149.7120 0166371 241.5146 116.8932 11.27556639704538 NOAA 14 1 23455U 94089A 12035.58153726 .00000024 00000-0 36153-4 0 7757 2 23455 098.8350 120.7323 0009358 345.2122 014.8776 14.13874495881912 ORBCOMM FM 1 1 23545U 95017A 12034.95828576 +.00001587 +00000-0 +32173-3 0 00363 2 23545 069.9694 014.2227 0011621 285.7440 074.2418 14.63090364894624 ORBCOMM FM 2 1 23546U 95017B 12034.88245108 +.00001556 +00000-0 +31821-3 0 00837 2 23546 069.9769 017.2324 0013067 275.1479 084.8171 14.62722023894615 TDRS 7 1 23613U 95035B 12033.67324944 -.00000193 +00000-0 +10000-3 0 01513 2 23613 012.8981 037.3348 0032902 334.8489 087.3072 01.00275257060629 NAVSTAR 37 (USA 117) 1 23833U 96019A 12035.12784211 -.00000020 00000-0 10000-3 0 258 2 23833 053.3104 111.5375 0148352 067.1096 294.4894 02.00560080116203 NAVSTAR 38 (USA 126) 1 23953U 96041A 12035.48846212 .00000077 00000-0 10000-3 0 5161 2 23953 054.2492 240.2706 0109733 041.5436 319.3387 02.00564282114006 JAS 2 1 24278U 96046B 12035.48352483 -.00000019 00000-0 16457-4 0 7699 2 24278 098.5755 153.6982 0350953 015.6243 345.5404 13.52976655763879 NAVSTAR 39 (USA 128) 1 24320U 96056A 12035.04807271 -.00000006 00000-0 10000-3 0 2665 2 24320 055.2337 056.9259 0025458 116.1059 244.2195 01.86497820112647 FENGYUN 2A 1 24834U 97029A 12035.05738195 -.00000065 00000-0 10000-3 0 7160 2 24834 010.6238 051.6608 0094159 098.9846 262.1630 00.96050579 53000 NAVSTAR 43 (USA 132) 1 24876U 97035A 12035.00564610 -.00000045 00000-0 10000-3 0 9820 2 24876 056.5538 304.2036 0044784 112.5979 247.9259 02.00557600106527 NAVSTAR 44 (USA 135) 1 25030U 97067A 12035.13395259 -.00000059 00000-0 10000-3 0 9312 2 25030 057.1623 004.4999 0121580 190.5415 169.2091 02.00559273104425 ORBCOMM FM 8 1 25112U 97084A 12034.72348550 .00000734 00000-0 30355-3 0 256 2 25112 045.0174 145.5194 0010456 209.1427 150.8831 14.35118884738326 ORBCOMM FM 10 1 25113U 97084B 12034.75806197 +.00000819 +00000-0 +33328-3 0 07496 2 25113 045.0189 146.2493 0008029 186.8568 173.2180 14.35108060738324 ORBCOMM FM 11 1 25114U 97084C 12034.75015020 +.00000870 +00000-0 +35107-3 0 06880 2 25114 045.0172 145.8616 0008095 187.1989 172.8732 14.35110006738324 ORBCOMM FM 12 1 25115U 97084D 12034.73327053 +.00000629 +00000-0 +26721-3 0 06852 2 25115 045.0163 145.6888 0007630 191.1073 168.9606 14.35114941738325 ORBCOMM FM 9 1 25116U 97084E 12034.74194073 +.00000701 +00000-0 +29245-3 0 08507 2 25116 045.0173 146.0850 0007265 178.3877 181.6993 14.35097584738328 ORBCOMM FM 5 1 25117U 97084F 12034.70601580 +.00000468 +00000-0 +21173-3 0 07837 2 25117 045.0173 146.4839 0004560 204.9578 155.1058 14.35104793738317 ORBCOMM FM 6 1 25118U 97084G 12035.46381609 .00000775 00000-0 31810-3 0 6681 2 25118 045.0177 142.7787 0004154 213.6619 146.3990 14.35119874738420 ORBCOMM FM 7 1 25119U 97084H 12034.71411307 +.00000675 +00000-0 +28335-3 0 09464 2 25119 045.0178 146.5098 0005493 194.5400 165.5291 14.35112192738312 NOAA 15 1 25338U 98030A 12035.23150366 .00000028 00000-0 30804-4 0 1270 2 25338 098.6790 023.4855 0011148 134.5217 225.6892 14.25025929713775 RESURS O1-N4 1 25394U 98043A 12034.94117683 +.00000026 +00000-0 +28942-4 0 00208 2 25394 098.3100 030.3132 0000725 310.8617 049.2500 14.24271889705297 TMSAT 1 25396U 98043C 12034.97500088 +.00000067 +00000-0 +47155-4 0 02066 2 25396 098.3266 026.0253 0002170 315.1702 044.9302 14.23903732705163 TECHSAT 1B 1 25397U 98043D 12035.54448167 .00000124 00000-0 72986-4 0 6956 2 25397 098.3493 020.9331 0001075 001.3798 358.7376 14.23256280705018 ORBCOMM FM 17 1 25413U 98046A 12034.62514845 +.00000648 +00000-0 +31351-3 0 08080 2 25413 044.9966 098.9965 0001414 173.1342 186.9523 14.28153788704093 ORBCOMM FM 18 1 25414U 98046B 12034.60152607 +.00000645 +00000-0 +30382-3 0 08342 2 25414 044.9965 094.0196 0001645 103.5878 256.5150 14.29621625704151 ORBCOMM FM 19 1 25415U 98046C 12034.61087223 +.00000804 +00000-0 +36508-3 0 08764 2 25415 044.9962 094.1909 0000764 085.4234 274.6697 14.29630124704158 ORBCOMM FM 20 1 25416U 98046D 12034.62108945 +.00000716 +00000-0 +33099-3 0 03041 2 25416 044.9965 094.3376 0003371 240.4711 119.5787 14.29617115704110 ORBCOMM FM 16 1 25417U 98046E 12034.63159768 +.00000542 +00000-0 +26374-3 0 09155 2 25417 044.9999 095.4257 0002331 175.9472 184.1402 14.29617872704155 ORBCOMM FM 15 1 25418U 98046F 12034.57222845 +.00000372 +00000-0 +19804-3 0 09595 2 25418 045.0001 095.9603 0002601 153.6565 206.4419 14.29608734704140 ORBCOMM FM 14 1 25419U 98046G 12034.58148395 +.00000163 +00000-0 +11720-3 0 09232 2 25419 045.0000 095.8183 0000965 191.5626 168.5180 14.29614634704141 ORBCOMM FM 13 1 25420U 98046H 12034.59135191 +.00000202 +00000-0 +13236-3 0 08120 2 25420 045.0002 096.1879 0002071 139.8131 220.2869 14.29608498704171 ORBCOMM FM 21 1 25475U 98053A 12034.81842698 +.00000173 +00000-0 +12071-3 0 07896 2 25475 045.0097 178.5021 0002457 048.9068 311.1986 14.29737742697385 ORBCOMM FM 22 1 25476U 98053B 12034.78245641 +.00000656 +00000-0 +30706-3 0 04593 2 25476 045.0092 179.0484 0002411 105.2620 254.8482 14.29760855697364 ORBCOMM FM 23 1 25477U 98053C 12034.83526153 +.00000385 +00000-0 +20251-3 0 07811 2 25477 045.0091 178.4625 0002260 090.1736 269.9366 14.29744317697549 ORBCOMM FM 24 1 25478U 98053D 12034.54631451 .00000297 00000-0 16870-3 0 3672 2 25478 045.0094 180.1313 0001543 137.7565 222.3379 14.29707131697481 ORBCOMM FM 25 1 25479U 98053E 12034.80047717 .00000276 00000-0 16054-3 0 6582 2 25479 045.0092 178.3646 0004000 093.0498 267.0801 14.29753745697510 ORBCOMM FM 26 1 25480U 98053F 12034.94791631 +.00000595 +00000-0 +28290-3 0 07243 2 25480 045.0082 166.7194 0006346 114.8003 245.3503 14.29890568697657 ORBCOMM FM 27 1 25481U 98053G 12034.53785626 .00000444 00000-0 22588-3 0 2495 2 25481 045.0076 179.2462 0001074 134.7511 225.3369 14.29616281697472 ORBCOMM FM 28 1 25482U 98053H 12034.70429798 .00000271 00000-0 15553-3 0 3707 2 25482 045.0105 143.6270 0003897 117.7569 242.3667 14.30748640697946 PAN SAT 1 25520U 98064B 12034.94053055 +.00001798 +00000-0 +74018-4 0 09339 2 25520 028.4603 289.6135 0004979 353.2154 006.8374 15.19124846734929 OSCAR 36 (UOSAT 12) 1 25693U 99021A 12034.94530490 +.00000236 +00000-0 +50797-4 0 07474 2 25693 064.5567 040.5450 0038643 231.5937 128.1706 14.79133325690066 FENGYUN 1C 1 25730U 99025A 12034.89787129 +.00001239 +00000-0 +73631-3 0 05379 2 25730 098.8362 356.3080 0021378 027.8037 332.4271 14.09206479655693 NAVSTAR 46 (USA 145) 1 25933U 99055A 12034.75799919 .00000006 00000-0 10000-3 0 4261 2 25933 050.8803 163.7900 0125804 058.5276 302.6596 02.00562396 90336 ORBCOMM FM 30 1 25980U 99065A 12034.28759698 +.00000230 +00000-0 +14301-3 0 02986 2 25980 045.0356 347.9567 0005334 263.3951 096.6289 14.29584602634761 ORBCOMM FM 31 1 25981U 99065B 12034.27296795 +.00000194 +00000-0 +12924-3 0 03934 2 25981 045.0269 345.0332 0005004 270.0817 089.9454 14.29589795634750 ORBCOMM FM 32 1 25982U 99065C 12034.29310045 +.00000508 +00000-0 +24984-3 0 03345 2 25982 045.0243 342.0608 0006836 263.2932 096.7135 14.29794535634798 ORBCOMM FM 33 1 25983U 99065D 12034.93874370 +.00000539 +00000-0 +25186-3 0 03904 2 25983 045.0343 340.7534 0007151 191.2076 168.8610 14.31778562634898 ORBCOMM FM 36 1 25984U 99065E 12034.88870583 +.00000793 +00000-0 +36120-3 0 03453 2 25984 045.0408 346.9042 0001762 165.1444 194.9453 14.29604093634848 ORBCOMM FM 35 1 25985U 99065F 12034.80502690 +.00000468 +00000-0 +23555-3 0 03689 2 25985 045.0443 348.3601 0003826 280.2606 079.7796 14.29590742634831 ORBCOMM FM 34 1 25986U 99065G 12034.86093606 +.00000273 +00000-0 +15979-3 0 03065 2 25986 045.0433 347.5044 0003885 244.6285 115.4156 14.29581036634840 OPAL 1 26063U 00004C 12034.94007541 +.00000098 +00000-0 +53385-4 0 03147 2 26063 100.2169 011.9438 0037124 073.0053 287.5187 14.36046135629973 NAVSTAR 47 (USA 150) 1 26360U 00025A 12034.87533014 .00000078 00000-0 10000-3 0 5136 2 26360 053.3436 236.6723 0049055 072.4078 288.1758 02.00551124 86039 FENGYUN 2B 1 26382U 00032A 12034.20114791 .00000123 00000-0 10000-3 0 4794 2 26382 006.5810 060.7279 0002302 253.6619 106.3904 01.00082423 42484 CHAMP (Decayed 2010-09-19) 1 26405U 00039B 10262.28192217 .16926560 -14854-5 22725-3 0 6331 2 26405 087.1842 124.2083 0007115 277.6175 082.5269 16.49173276582753 NAVSTAR 48 (USA 151) 1 26407U 00040A 12035.22097863 -.00000000 00000-0 10000-3 0 4643 2 26407 056.0141 061.7854 0180270 254.4044 103.6624 02.00559798 84717 NOAA 16 1 26536U 00055A 12035.25003146 .00000052 00000-0 52900-4 0 6112 2 26536 099.1140 075.1940 0011371 101.0143 259.2351 14.12701235586122 SAUDISAT 1A 1 26545U 00057A 12034.97768485 +.00000614 +00000-0 +96276-4 0 00679 2 26545 064.5561 033.0302 0034009 329.5726 030.3415 14.81351654613613 TIUNGSAT 1 1 26548U 00057D 12034.98401117 +.00000866 +00000-0 +11954-3 0 02534 2 26548 064.5534 342.6251 0033819 316.7399 043.1050 14.84373170614641 SAUDISAT 1B 1 26549U 00057E 12034.67618566 +.00000528 +00000-0 +87623-4 0 01552 2 26549 064.5530 055.9759 0034170 337.8403 022.1223 14.80165500613129 NAVSTAR 49 (USA 154) 1 26605U 00071A 12034.82204482 -.00000044 00000-0 10000-3 0 4816 2 26605 056.1487 302.7237 0064172 243.5201 115.8696 02.00553239 82301 NAVSTAR 50 (USA 156) 1 26690U 01004A 12034.68173425 .00000075 00000-0 10000-3 0 3545 2 26690 053.3318 239.7633 0129518 234.9506 123.8828 02.00564176 80715 PICOSAT 9 1 26930U 01043B 12034.76097198 -.00000017 00000-0 25459-4 0 9375 2 26930 067.0009 078.0093 0002732 314.1150 045.9730 14.30171934540235 PCSAT 1 26931U 01043C 12034.66392686 -.00000154 +00000-0 -27807-4 0 09625 2 26931 067.0521 107.0392 0005975 278.9521 081.0901 14.29755923540012 SAPPHIRE 1 26932U 01043D 12034.74625758 -.00000228 +00000-0 -56501-4 0 09720 2 26932 067.0564 107.1462 0004505 290.3213 069.7385 14.29749919540076 FENGYUN 1D 1 27431U 02024B 12035.50516728 .00000050 00000-0 53070-4 0 8555 2 27431 098.7464 005.8790 0014900 206.2010 153.8379 14.09349086500354 NOAA 17 1 27453U 02032A 12035.48808402 .00000175 00000-0 93540-4 0 5852 2 27453 098.3532 069.1891 0011604 184.4401 175.6691 14.24390094499723 MOZHAYETS 1 27560U 02054B 12034.89971105 +.00000354 +00000-0 +90117-4 0 01852 2 27560 097.9422 203.7296 0043756 093.4425 267.1784 14.55504357486615 SAUDISAT 1C 1 27607U 02058C 12034.88307774 +.00000569 +00000-0 +10678-3 0 06803 2 27607 064.5592 343.3940 0085077 274.7166 084.4214 14.72199581490194 NAVSTAR 51 (USA 166) 1 27663U 03005A 12034.05600036 -.00000010 00000-0 10000-3 0 7761 2 27663 056.1088 061.4371 0063430 353.5073 006.4735 02.00572548 66053 NAVSTAR 52 (USA 168) 1 27704U 03010A 12035.10343219 .00000033 00000-0 10000-3 0 6759 2 27704 053.3706 179.4779 0186448 229.0953 129.2465 02.00564187 64867 NAVSTAR 53 (USA 175) 1 28129U 03058A 12035.23294178 .00000074 00000-0 10000-3 0 2498 2 28129 053.1887 239.9472 0057925 246.7151 112.7180 02.00560682 59571 NAVSTAR 54 (USA 177) 1 28190U 04009A 12034.17961854 -.00000025 +00000-0 +10000-3 0 02393 2 28190 054.9918 124.1463 0078082 006.8129 353.3107 02.00555798057724 NAVSTAR 55 (USA 178) 1 28361U 04023A 12034.96550929 -.00000039 00000-0 10000-3 0 554 2 28361 055.0919 299.8529 0075751 188.4423 171.4849 02.00562521 55827 APRIZESAT 2 1 28366U 04025A 12034.87545845 +.00000089 +00000-0 +42333-4 0 01169 2 28366 098.2045 353.1594 0109346 158.2025 202.3869 14.35792251398213 UNISAT 3 1 28373U 04025H 12034.80323732 .00000334 00000-0 10735-3 0 1544 2 28373 098.0841 014.5380 0071660 052.6354 308.1339 14.43731183400861 AMSAT ECHO 1 28375U 04025K 12034.50459269 +.00000155 +00000-0 +58977-4 0 01865 2 28375 098.1279 006.1815 0084563 088.5660 272.5224 14.40890261399373 NAVSTAR 56 (USA 180) 1 28474U 04045A 12035.45645572 .00000030 00000-0 10000-3 0 9422 2 28474 053.7894 178.1019 0109099 195.9311 163.6867 02.00567871 53198 HAMSAT 1 28650U 05017B 12034.76780546 +.00000574 +00000-0 +76988-4 0 00176 2 28650 097.6153 072.2197 0027582 121.0507 239.3384 14.82653254365053 NAVSTAR 57 (USA 183) 1 28874U 05038A 12035.30900269 -.00000017 00000-0 10000-3 0 2058 2 28874 055.1406 121.0434 0072472 226.5566 132.8646 02.00569087 46615 SSETI-EXPRESS 1 28894U 05043E 12034.67611398 .00000231 00000-0 57382-4 0 2947 2 28894 097.9284 265.4141 0016717 214.3013 145.7108 14.60014322334123 MOZ.5/SAFIR/RUBIN 5/SL-8 1 28898U 05043G 12034.67967544 .00000211 00000-0 54410-4 0 1269 2 28898 097.9110 258.6384 0017684 229.9376 130.0271 14.58871431333863 SUITSAT (Decayed 2006-09-07) 1 28933U 05035C 06250.56263144 .13300754 00000-0 18638-3 0 4012 2 28933 051.6150 101.2534 0006572 313.0977 047.0289 16.48585101 34276 CUTE 1.7 (Decayed 2009-10-25) 1 28941U 06005C 09297.68475575 .14491492 29743-5 25760-3 0 5565 2 28941 098.0955 138.9518 0011688 319.8691 040.7485 16.46998778207909 HITSAT (Decayed 2008-06-18) 1 29484U 06041F 08170.27591928 .21901596 31637-5 19690-3 0 4662 2 29484 098.2496 292.5583 0013872 275.6258 084.5236 16.51113477 98738 NAVSTAR 58 (USA 190) 1 29486U 06042A 12034.42397200 -.00000067 +00000-0 +10000-3 0 05600 2 29486 056.1933 000.0304 0082945 307.2188 052.0219 02.00576059039298 NAVSTAR 59 (USA 192) 1 29601U 06052A 12035.36514800 .00000001 00000-0 10000-3 0 6193 2 29601 056.0579 060.3500 0037473 352.9312 007.0871 02.00574515 38222 RAFT (Decayed 2007-05-30) 1 29661U 06055C 07150.05824307 .13324117 12618-4 10400-3 0 3000 2 29661 051.6186 176.5045 0007204 190.7749 188.7342 16.52052832 25544 MARSCOM (Decayed 2007-05-06) 1 29662U 06055D 07126.39603970 .07031946 12599-4 11450-3 0 2632 2 29662 051.6121 302.3682 0004459 252.1654 110.7411 16.47981436 21652 ANDE MAA SPHERE 1 (Decayed 2007-12-25) 1 29664U 06055F 07359.16654419 .14620719 12705-4 12723-3 0 7381 2 29664 051.6179 150.0690 0003189 248.8461 111.8136 16.51627846 58777 ANDE FCAL SPHERE 2 (Decayed 2008-05-25) 1 29667U 06055J 08146.34060426 .11864717 12752-4 73624-4 0 9790 2 29667 051.6107 065.3702 0009039 260.8350 099.5042 16.53464210 82911 PEHUENSAT 1 1 29712U 07001D 12034.85397676 +.00002656 +00000-0 +32292-3 0 07954 2 29712 097.7108 077.6462 0013340 021.5205 338.6566 14.84236749273864 NAVSTAR 60 (USA 196) 1 32260U 07047A 12035.18482682 -.00000034 00000-0 00000+0 0 3240 2 32260 054.2516 297.8956 0042736 357.7216 002.3104 02.00554063 31613 NAVSTAR 61 (USA 199) 1 32384U 07062A 12034.99761037 -.00000020 00000-0 10000-3 0 3606 2 32384 055.1673 121.5432 0024121 290.2404 069.5302 02.00566329 30335 NAVSTAR 62 (USA 201) 1 32711U 08012A 12035.08980869 -.00000066 00000-0 10000-3 0 1375 2 32711 055.9013 359.8687 0051291 190.8532 169.0398 02.00569734 28542 DELFI C3 1 32789U 08021G 12034.75852094 +.00003087 +00000-0 +36844-3 0 02214 2 32789 097.8302 100.8817 0015860 136.1354 224.1097 14.84877910203928 YUBILEINY 1 32953U 08025A 12035.35732341 .00000010 00000-0 00000+0 0 4913 2 32953 082.5021 018.3543 0017460 239.0516 120.8853 12.43020620167933 PRISM (HITOMI) 1 33493U 09002B 12034.90391960 +.00002133 +00000-0 +26765-3 0 03914 2 33493 098.1495 172.5086 0019370 015.4553 344.7219 14.83148252163842 STARS (KUKAI) 1 33498U 09002G 12034.80681390 .00000879 00000-0 14627-3 0 6357 2 33498 098.0974 151.3589 0013559 137.0618 223.1639 14.72524795162749 KKS-1 (KISEKI) 1 33499U 09002H 12034.87404857 +.00000602 +00000-0 +10506-3 0 06565 2 33499 098.1000 150.3326 0010812 136.0239 224.1827 14.71502969162676 ANDE CASTOR SPHERE (Decayed 2010-08-18) 1 35694U 09038F 10230.44082147 .07179566 12689-4 99310-4 0 6559 2 35694 051.5930 222.0149 0004218 308.0851 053.0105 16.48877011 61107 SUMBANDILA 1 35870U 09049F 12034.96397134 +.00003149 +00000-0 +13803-3 0 06494 2 35870 097.2519 075.4149 0000737 336.7165 064.5697 15.22701808132182 XIWANG-1 (HOPE-1) 1 36122U 09072B 12034.75825315 -.00000044 +00000-0 +00000-0 0 01674 2 36122 100.3817 096.7211 0007727 058.4467 301.7400 13.16292829102707 RADIOSCAF-B (KEDR) (Decayed 2012-01-04) 1 37772U 98067CK 12004.04884568 .13494171 12416-4 77857-3 0 4794 2 37772 051.6129 213.1240 0007478 255.9283 104.1611 16.41716225 24077